Regional Weather Roundup
Issued by NWS

Home | Current Version | Previous Version | Graphics & Text | Print | Product List | Glossary On
Versions: 1 2 3 4 5 6 7 8 9 10 11 12 13 14 15 16 17 18 19 20 21 22 23 24 25 26 27 28 29 30 31 32 33 34 35 36 37 38 39 40 41 42 43 44 45 46 47 48 49 50
828
ASUS45 KCYS 091810
RWRWY

WYOMING REGIONAL WEATHER ROUNDUP
NATIONAL WEATHER SERVICE CHEYENNE WY
1100 AM MST TUE FEB 09 2016

NOTE:  "FAIR" INDICATES FEW OR NO CLOUDS BELOW 12,000 FEET
WITH NO SIGNIFICANT WEATHER AND/OR OBSTRUCTIONS TO VISIBILITY.

WYZ001-091900-
YELLOWSTONE NATIONAL PARK

CITY           SKY/WX    TMP DP  RH WIND       PRES   REMARKS
LK YELLOWSTONE   N/A     16  14  92 CALM      30.56F
6HR MIN TEMP:  11; 6HR MAX TEMP:  16;

W YELLOWSTONE  NOT AVBL

$$
WYZ002>013-054>058-071-098>099-091900-
NORTHERN WYOMING

CITY           SKY/WX    TMP DP  RH WIND       PRES   REMARKS
JACKSON        MOSUNNY   12  10  92 CALM      30.59F
CODY           FAIR      45  27  49 CALM      30.35R
GREYBULL       FAIR      32  22  66 CALM      30.39S
6HR MIN TEMP:  15; 6HR MAX TEMP:  33;

WORLAND        FAIR      33  26  75 CALM      30.38F
6HR MIN TEMP:  16; 6HR MAX TEMP:  33;

SHERIDAN       SUNNY     54  25  32 N13       30.26S
6HR MIN TEMP:  34; 6HR MAX TEMP:  55;

BUFFALO        FAIR      49  30  48 E6        30.30R
6HR MIN TEMP:  37; 6HR MAX TEMP:  50;

GILLETTE       FAIR      45  31  58 W10       30.27S
6HR MIN TEMP:  32; 6HR MAX TEMP:  45;

HULETT         CLOUDY    41  30  65 SW7       30.27S
NEWCASTLE      FAIR      43  28  56 NW18G24   30.25F

$$
WYZ014>020-022>026-101>103-091900-
CENTRAL WYOMING

CITY           SKY/WX    TMP DP  RH WIND       PRES   REMARKS
BIG PINEY      FAIR      35  25  66 NW5       30.47S WCI  31
6HR MIN TEMP:  14; 6HR MAX TEMP:  35;

PINEDALE       FAIR      37  25  60 NW21G26   30.45S WCI  27
DUBOIS         FAIR      50  10  20 NW22G29   30.41F
LANDER         FAIR      29  18  63 SE5       30.38F WCI  24
6HR MIN TEMP:  19; 6HR MAX TEMP:  31;

RIVERTON       FAIR      24  17  74 CALM      30.41S
6HR MIN TEMP:  13; 6HR MAX TEMP:  26;

CASPER         FAIR      36  22  56 SW18      30.36R WCI  26
6HR MIN TEMP:  29; 6HR MAX TEMP:  36;

DOUGLAS          N/A     43  27  53 NW12        N/A
6HR MIN TEMP:  29; 6HR MAX TEMP:  43;


$$
WYZ021-027>030-104>119-091900-
SOUTHERN WYOMING

CITY           SKY/WX    TMP DP  RH WIND       PRES   REMARKS
EVANSTON       FAIR      30  21  69 S6        30.54S WCI  24
6HR MIN TEMP:  22; 6HR MAX TEMP:  30;

KEMMERER       FAIR      32  23  69 W10       30.51  WCI  24
FORT BRIDGER   CLEAR     37  27  65 W23       30.54S WCI  26
ROCK SPRINGS   FAIR      34  25  69 SW18      30.48S WCI  23
6HR MIN TEMP:  26; 6HR MAX TEMP:  34;

DIXON          FAIR      25  16  69 CALM      30.56R
RAWLINS        FAIR      33  22  63 SW18G30   30.45S WCI  22
6HR MIN TEMP:  24; 6HR MAX TEMP:  33;

SARATOGA       FAIR      28  18  64 CALM      30.47F
LARAMIE        FAIR      33  21  61 NE8       30.37S WCI  26
6HR MIN TEMP:  16; 6HR MAX TEMP:  35;

CHEYENNE       FAIR      44  22  41 NW23G31   30.31S
6HR MIN TEMP:  34; 6HR MAX TEMP:  44;

TORRINGTON     FAIR      46  26  45 NW16      30.28S
6HR MIN TEMP:  32; 6HR MAX TEMP:  46;

PINE BLUFFS    FAIR      45  27  49 NW22G29   30.31R

$$




USA.gov is the U.S. government's official web portal to all federal, state and local government web resources and services.